User: anonymous   Login
Location: Unspecified
(0.0000°N, 0.0000°E)
Time: 09:30:18
(UTC+00:00)
Language:

ITF 1 - Orbit

View from above orbital plane
View from above orbital plane
View from above satellite
View from above satellite

Ground track
Ground track

The orbit data is extracted from the following two-line orbital elements,

1 39577U 14009F   14244.78324653  .10543803  76292-5  32273-3 0  9993
2 39577 064.9920 123.7668 0014904 269.7208 091.1897 16.43552757 29380
Epoch (UTC): 01 September 2014 18:47:52
Eccentricity: 0.0014904
inclination: 64.9920°
perigee height: 146 km
apogee height: 166 km
right ascension of ascending node: 123.7668°
argument of perigee: 269.7208°
revolutions per day: 16.43552757
mean anomaly at epoch: 91.1897°
orbit number at epoch: 2938

The dashed part of the orbit path shows where the satellite is in the earth's shadow,  

DLR